[[{"header":{"parameterUnit":"m.s-1","parameterCategory":1,"la1":30.2991,"la2":30.254,"lo1":-89.0895,"lo2":-89.0444,"dy":0.0017,"dx":0.0017,"nx":28,"ny":28,"refTime":"2024-08-25T09:00:00:Z","depth":0,"parameterNumber":2,"parameterNumberName":"U-component_of_WINDS"},"data":[0,0,0,0,0,0,0,0,0,0,0,0,0,0,0,0,0,0,0,0,0,0,0,0,0,0,0,0,0,0,0,0,0,0,0,0,0,0,0,0,0,0,0,0,0,0,0,0,0,0,0,0,0,0,0,0,0,0,-1.0847,-1.0847,0,-1.0835,-1.0834,-1.0834,-1.0731,-1.0728,-1.0726,-1.0723,-1.0716,-1.0718,-1.072,0,0,0,0,0,0,0,0,0,0,0,0,0,-1.0785,-1.0787,-1.0847,-1.0847,-1.0847,-1.0835,-1.0834,-1.0834,-1.0731,-1.0728,-1.0725,-1.0722,-1.0715,-1.0717,-1.072,0,0,0,0,0,0,0,0,0,0,0,0,0,-1.0797,-1.0787,-1.0847,-1.0794,-1.0789,-1.0835,-1.0834,-1.0834,-1.0732,-1.0728,-1.0724,-1.0721,-1.0714,-1.0717,-1.072,-1.0818,0,0,-1.073,-1.0732,0,0,0,0,0,0,0,0,-1.0796,-1.0799,-1.0802,-1.0798,-1.0792,-1.078,-1.081,-1.0829,-1.0733,-1.0754,-1.0723,-1.0719,-1.0741,-1.0741,-1.0748,-1.0817,-1.0817,-1.0731,-1.0733,-1.0734,-1.0735,0,0,0,0,0,0,0,-1.0795,-1.0799,-1.0842,-1.0802,-1.0796,-1.0772,-1.0769,-1.0813,-1.0769,-1.0752,-1.0744,-1.0744,-1.0737,-1.0745,-1.0747,-1.0817,-1.0731,-1.0734,-1.0736,-1.0737,-1.0965,-1.0969,0,0,0,0,0,0,-1.0801,-1.0799,-1.0843,-1.0842,-1.0784,-1.0776,-1.0773,-1.0788,-1.0768,-1.0761,-1.0747,-1.0739,-1.0741,-1.0743,-1.0746,-1.0859,-1.0734,-1.0737,-1.0739,-1.0961,-1.0966,-1.0971,0,0,0,0,0,0,-1.08,-1.0806,-1.0843,-1.0818,-1.0821,-1.0781,-1.0799,-1.079,-1.0797,-1.0765,-1.0757,-1.0763,-1.0738,-1.0741,-1.08,-1.0857,-1.0739,-1.0742,-1.0956,-1.0963,-1.0968,-1.1086,0,0,0,0,0,0,-1.0799,-1.0807,-1.0843,-1.082,-1.0823,-1.0897,-1.0802,-1.0792,-1.0803,-1.0792,-1.0777,-1.0771,-1.0735,-1.0796,-1.0804,-1.086,-1.0744,-1.0951,-1.0959,-1.0967,-1.1076,-1.1095,-1.1111,0,0,0,0,0,-1.0797,-1.0877,-1.0845,-1.0851,-1.0867,-1.0901,-1.0902,-1.0858,-1.0808,-1.0844,-1.0823,-1.0772,-1.0849,-1.0803,-1.081,-1.0868,-1.0948,-1.0957,-1.0966,-1.1069,-1.1091,-1.111,0,0,0,0,0,0,-1.091,-1.0873,-1.0837,-1.0912,-1.091,-1.0883,-1.0928,-1.0883,-1.0897,-1.0887,-1.0832,-1.083,-1.0897,-1.0888,-1.0837,-1.0961,-1.0889,-1.0901,-1.0965,-1.0986,-1.1003,-1.1005,-1.0747,0,0,0,0,0,-1.0943,-1.0973,-1.0939,-1.1009,-1.1009,-1.0969,-1.0982,-1.0947,-1.0944,-1.0943,-1.0926,-1.0926,-1.095,-1.0967,-1.0987,-1.1074,-1.1069,-1.1117,-1.1134,-1.1148,-1.116,-1.1205,-1.1226,-1.1001,-1.1001,-1.1001,0,0,-1.1014,-1.0997,-1.1019,-1.1031,-1.1025,-1.1058,-1.0969,-1.1007,-1.1031,-1.0949,-1.1003,-1.0991,-1.0987,-1.106,-1.1091,-1.1055,-1.122,-1.116,-1.1172,-1.1175,-1.1216,-1.1238,-1.1257,-1.1007,-1.1006,-1.1005,0,0,-1.1158,-1.1147,-1.1204,-1.1199,-1.1191,-1.1163,-1.1176,-1.1156,-1.1144,-1.1197,-1.1136,-1.1163,-1.1206,-1.1206,-1.1211,-1.1352,-1.1306,-1.136,-1.1451,-1.1496,-1.1513,-1.1529,-1.158,-1.1599,-1.1371,-1.1371,-1.1372,0,-1.1246,-1.1291,-1.1239,-1.1281,-1.1288,-1.1212,-1.127,-1.1268,-1.1268,-1.1275,-1.1233,-1.1284,-1.1276,-1.1348,-1.1382,-1.1389,-1.1403,-1.1363,-1.1515,-1.153,-1.1543,-1.1592,-1.1611,-1.1378,-1.1377,-1.1377,-1.1376,0,-1.1401,-1.1433,-1.148,-1.1479,-1.1491,-1.1541,-1.1497,-1.1515,-1.1479,-1.1456,-1.1511,-1.1498,-1.1515,-1.1528,-1.1495,-1.1596,-1.1573,-1.1524,-1.1451,-1.1572,-1.1617,-1.1635,-1.1388,-1.1385,-1.1383,-1.1382,0,0,-1.1619,-1.1586,-1.1604,-1.1603,-1.1587,-1.1611,-1.1657,-1.1671,-1.1689,-1.169,-1.1728,-1.1765,-1.1718,-1.1725,-1.1689,-1.1728,-1.1842,-1.1674,-1.1673,-1.1707,-1.1953,-1.1992,-1.2014,-1.181,-1.1813,-1.1816,-1.1954,0,-1.1758,-1.1833,-1.1787,-1.187,-1.1899,-1.1827,-1.1866,-1.1862,-1.1841,-1.1864,-1.1841,-1.1868,-1.1804,-1.1807,-1.1842,-1.1821,-1.1891,-1.181,-1.1847,-1.1848,-1.1852,-1.2037,-1.2078,-1.2209,-1.1971,-1.1974,-1.1976,0,-1.1932,-1.1938,-1.2024,-1.2001,-1.2012,-1.2048,-1.2057,-1.2079,-1.2072,-1.2053,-1.2059,-1.2014,-1.2058,-1.1985,-1.2045,-1.1991,-1.2003,-1.1995,-1.1999,-1.2002,-1.1921,-1.2047,-1.225,-1.227,-1.2003,-1.2,-1.1999,0,-1.2083,-1.2114,-1.2169,-1.217,-1.2144,-1.2171,-1.2162,-1.2151,-1.2162,-1.2169,-1.2176,-1.2189,-1.2197,-1.2209,-1.2169,-1.2119,-1.2236,-1.2158,-1.2223,-1.2225,-1.2253,-1.2253,-1.2463,-1.2258,-1.2258,-1.2258,-1.2257,0,-1.2245,-1.2301,-1.2236,-1.2271,-1.2331,-1.2276,-1.2338,-1.2321,-1.2311,-1.2341,-1.2279,-1.2309,-1.2253,-1.2278,-1.2247,-1.2303,-1.2306,-1.2294,-1.2286,-1.2301,-1.2303,-1.2309,-1.23,-1.2263,-1.2262,-1.2261,-1.226,0,-1.2426,-1.2385,-1.244,-1.241,-1.2404,-1.245,-1.2425,-1.2455,-1.2429,-1.2468,-1.2474,-1.2434,-1.2459,-1.2419,-1.2441,-1.242,-1.2497,-1.2474,-1.25,-1.2494,-1.2561,-1.2556,-1.2785,-1.2812,-1.2589,-1.2591,-1.2593,0,-1.2533,-1.2574,-1.2547,-1.2562,-1.2556,-1.2581,-1.2591,-1.2538,-1.2551,-1.2545,-1.2577,-1.2597,-1.261,-1.2655,-1.2628,-1.2644,-1.2622,-1.2701,-1.2624,-1.2638,-1.2625,-1.2624,-1.2628,-1.2718,-1.272,-1.2722,-1.2724,0,-1.2727,-1.2704,-1.272,-1.2729,-1.2742,-1.2747,-1.2748,-1.2764,-1.2708,-1.2726,-1.275,-1.2761,-1.2781,-1.2803,-1.2811,-1.2803,-1.2756,-1.2748,-1.2764,-1.2781,-1.2795,-1.279,-1.2544,-1.2744,-1.2742,-1.274,-1.2739,-1.2739,-1.2875,-1.2908,-1.2894,-1.2913,-1.2907,-1.2909,-1.2936,-1.2912,-1.2931,-1.2942,-1.291,-1.2942,-1.2933,-1.294,-1.2937,-1.2962,-1.2927,-1.2951,-1.2957,-1.2964,-1.2975,-1.2789,-1.2963,-1.2962,-1.2962,-1.2961,-1.2961,0,-1.3068,-1.3054,-1.3072,-1.3074,-1.3089,-1.3039,-1.3037,-1.3054,-1.3083,-1.3077,-1.309,-1.3118,-1.3138,-1.3112,-1.3127,-1.3152,-1.3131,-1.3158,-1.3157,-1.3156,-1.3004,-1.2989,-1.3175,-1.3175,-1.3175,-1.3175,-1.3175,-1.3175,-1.317,-1.3222,-1.3197,-1.3246,-1.3232,-1.3262,-1.3265,-1.3266,-1.3261,-1.3294,-1.3309,-1.3291,-1.3278,-1.3291,-1.3307,-1.3299,-1.3308,-1.3344,-1.3328,-1.3188,-1.3167,-1.3147,-1.3132,-1.3346,-1.3346,-1.3478,-1.3479,-1.348]},{"header":{"parameterUnit":"m.s-1","parameterCategory":1,"la1":30.2991,"la2":30.254,"lo1":-89.0895,"lo2":-89.0444,"dy":0.0017,"dx":0.0017,"nx":28,"ny":28,"refTime":"2024-08-25T09:00:00:Z","depth":0,"parameterNumber":3,"parameterNumberName":"V-component_of_WINDS"},"data":[0,0,0,0,0,0,0,0,0,0,0,0,0,0,0,0,0,0,0,0,0,0,0,0,0,0,0,0,0,0,0,0,0,0,0,0,0,0,0,0,0,0,0,0,0,0,0,0,0,0,0,0,0,0,0,0,0,0,-2.6572,-2.6573,0,-2.6674,-2.6675,-2.6676,-2.6694,-2.6693,-2.6692,-2.6692,-2.6791,-2.6794,-2.6797,0,0,0,0,0,0,0,0,0,0,0,0,0,-2.6389,-2.6393,-2.6572,-2.6574,-2.6575,-2.6674,-2.6675,-2.6676,-2.6694,-2.6693,-2.6692,-2.6691,-2.679,-2.6794,-2.6798,0,0,0,0,0,0,0,0,0,0,0,0,0,-2.6477,-2.6394,-2.6572,-2.6596,-2.6599,-2.6673,-2.6675,-2.6677,-2.6694,-2.6693,-2.6692,-2.6691,-2.6788,-2.6793,-2.6798,-2.6855,0,0,-2.6814,-2.6816,0,0,0,0,0,0,0,0,-2.6472,-2.6484,-2.6591,-2.6594,-2.6598,-2.667,-2.6647,-2.6736,-2.6695,-2.6658,-2.6692,-2.669,-2.6751,-2.6759,-2.6781,-2.686,-2.6864,-2.6814,-2.6818,-2.682,-2.6821,0,0,0,0,0,0,0,-2.6466,-2.648,-2.6612,-2.6592,-2.6597,-2.66,-2.6611,-2.6664,-2.671,-2.6661,-2.6663,-2.6675,-2.6753,-2.6776,-2.6783,-2.6865,-2.6814,-2.6819,-2.6822,-2.6824,-2.6995,-2.6996,0,0,0,0,0,0,-2.6457,-2.6475,-2.6609,-2.6615,-2.6531,-2.6604,-2.6617,-2.6648,-2.671,-2.6718,-2.6676,-2.6675,-2.6768,-2.6777,-2.6787,-2.6857,-2.682,-2.6825,-2.6827,-2.6993,-2.6995,-2.6996,0,0,0,0,0,0,-2.6453,-2.6468,-2.6605,-2.6546,-2.6563,-2.6609,-2.6644,-2.6651,-2.6674,-2.6721,-2.6729,-2.6691,-2.6767,-2.678,-2.6838,-2.686,-2.6827,-2.6831,-2.6991,-2.6994,-2.6996,-2.6997,0,0,0,0,0,0,-2.6447,-2.6467,-2.649,-2.6546,-2.6566,-2.6656,-2.6645,-2.6654,-2.6683,-2.6684,-2.6737,-2.6745,-2.6767,-2.683,-2.6843,-2.6867,-2.6835,-2.699,-2.6992,-2.6995,-2.6995,-2.6999,-2.7002,0,0,0,0,0,-2.6441,-2.6485,-2.6491,-2.6507,-2.6596,-2.6657,-2.6668,-2.6695,-2.6685,-2.6708,-2.6738,-2.6743,-2.6856,-2.6836,-2.6851,-2.6876,-2.6988,-2.6992,-2.6995,-2.6993,-2.6998,-2.7002,0,0,0,0,0,0,-2.6429,-2.6493,-2.65,-2.6564,-2.6605,-2.666,-2.6689,-2.6699,-2.6742,-2.674,-2.6769,-2.6781,-2.6838,-2.6863,-2.684,-2.6934,-2.6921,-2.6928,-2.6915,-2.692,-2.6923,-2.6915,-2.684,0,0,0,0,0,-2.6434,-2.6479,-2.6532,-2.6584,-2.6604,-2.6643,-2.6671,-2.6688,-2.673,-2.6747,-2.6782,-2.6822,-2.6866,-2.6895,-2.6938,-2.6999,-2.701,-2.7024,-2.7027,-2.703,-2.7034,-2.7068,-2.7074,-2.7007,-2.7007,-2.7007,0,0,-2.6444,-2.6485,-2.6511,-2.6583,-2.6616,-2.6661,-2.6658,-2.6705,-2.6738,-2.6754,-2.6811,-2.6838,-2.6885,-2.6944,-2.6972,-2.6967,-2.7056,-2.7034,-2.7036,-2.7039,-2.7072,-2.7078,-2.7083,-2.7009,-2.7009,-2.7009,0,0,-2.6486,-2.6522,-2.6569,-2.6603,-2.6655,-2.668,-2.6691,-2.6745,-2.6764,-2.6823,-2.6835,-2.6874,-2.695,-2.6983,-2.7009,-2.7064,-2.707,-2.7078,-2.7095,-2.7127,-2.7133,-2.7137,-2.7156,-2.7162,-2.7082,-2.7082,-2.7082,0,-2.6491,-2.6561,-2.6591,-2.6638,-2.6669,-2.6687,-2.6733,-2.6765,-2.6827,-2.6847,-2.6841,-2.6937,-2.697,-2.7037,-2.705,-2.7072,-2.7084,-2.7071,-2.713,-2.7135,-2.714,-2.7157,-2.7164,-2.7083,-2.7083,-2.7083,-2.7083,0,-2.6565,-2.6613,-2.6645,-2.6706,-2.674,-2.6787,-2.6822,-2.6853,-2.6867,-2.6893,-2.6952,-2.6992,-2.7044,-2.7061,-2.7075,-2.713,-2.7125,-2.7124,-2.7112,-2.7146,-2.7163,-2.717,-2.7084,-2.7083,-2.7083,-2.7083,0,0,-2.6601,-2.6679,-2.669,-2.6718,-2.6777,-2.6814,-2.6861,-2.6913,-2.6938,-2.6981,-2.702,-2.7085,-2.7085,-2.7115,-2.7132,-2.7161,-2.72,-2.7156,-2.7158,-2.7162,-2.7262,-2.7262,-2.7269,-2.7205,-2.7207,-2.7208,-2.7258,0,-2.6648,-2.6735,-2.6763,-2.6834,-2.6878,-2.6896,-2.6937,-2.6977,-2.7003,-2.7043,-2.707,-2.7115,-2.7112,-2.713,-2.7159,-2.7189,-2.722,-2.7186,-2.724,-2.7242,-2.7227,-2.7278,-2.7278,-2.7323,-2.7265,-2.7266,-2.7267,0,-2.6715,-2.676,-2.6836,-2.689,-2.6909,-2.6946,-2.6996,-2.7035,-2.7079,-2.7096,-2.713,-2.7146,-2.7194,-2.7181,-2.7247,-2.7223,-2.7247,-2.7265,-2.7267,-2.7272,-2.7255,-2.7283,-2.7338,-2.7344,-2.7278,-2.7277,-2.7276,0,-2.6732,-2.6812,-2.6867,-2.6891,-2.6955,-2.698,-2.7007,-2.7052,-2.7081,-2.7125,-2.7144,-2.7192,-2.7218,-2.7254,-2.7281,-2.7269,-2.7345,-2.7334,-2.7359,-2.7358,-2.7372,-2.7371,-2.7431,-2.739,-2.739,-2.739,-2.739,0,-2.6781,-2.6826,-2.6876,-2.691,-2.6961,-2.6993,-2.7042,-2.707,-2.7109,-2.7148,-2.7167,-2.7202,-2.7237,-2.7277,-2.7299,-2.735,-2.7362,-2.7375,-2.738,-2.7373,-2.7371,-2.7388,-2.7385,-2.7392,-2.7391,-2.7391,-2.7391,0,-2.6807,-2.6843,-2.6904,-2.696,-2.6976,-2.701,-2.7058,-2.7091,-2.7118,-2.7167,-2.718,-2.7222,-2.727,-2.7301,-2.7362,-2.7377,-2.7432,-2.7437,-2.7417,-2.7419,-2.7442,-2.7439,-2.7513,-2.7524,-2.7478,-2.7478,-2.7479,0,-2.6836,-2.6871,-2.6932,-2.696,-2.6988,-2.7033,-2.7064,-2.7096,-2.7127,-2.7181,-2.7207,-2.7257,-2.7299,-2.7374,-2.7409,-2.7455,-2.7461,-2.7484,-2.7467,-2.7459,-2.7459,-2.7456,-2.7459,-2.7485,-2.7486,-2.7486,-2.7486,0,-2.6882,-2.6898,-2.6942,-2.6993,-2.703,-2.7071,-2.7112,-2.7134,-2.7173,-2.7207,-2.7257,-2.7289,-2.7352,-2.7401,-2.7451,-2.7477,-2.7488,-2.7492,-2.75,-2.7492,-2.7478,-2.7484,-2.7422,-2.7489,-2.7489,-2.7489,-2.7489,-2.7488,-2.6909,-2.6941,-2.6989,-2.7038,-2.7073,-2.7111,-2.7145,-2.7177,-2.722,-2.7275,-2.7291,-2.7343,-2.7387,-2.7455,-2.7483,-2.7523,-2.752,-2.7532,-2.7535,-2.7537,-2.7536,-2.7473,-2.7532,-2.7532,-2.7532,-2.7532,-2.7532,0,-2.6955,-2.6987,-2.7032,-2.709,-2.7128,-2.7137,-2.7183,-2.7214,-2.726,-2.7301,-2.7342,-2.7399,-2.7446,-2.7485,-2.7534,-2.7558,-2.7564,-2.757,-2.7567,-2.7573,-2.7537,-2.7524,-2.7564,-2.7564,-2.7564,-2.7564,-2.7564,-2.7564,-2.6983,-2.7038,-2.706,-2.7132,-2.7163,-2.7216,-2.7241,-2.7276,-2.7309,-2.7372,-2.7412,-2.7438,-2.7478,-2.753,-2.7573,-2.7584,-2.76,-2.7604,-2.7615,-2.7579,-2.7576,-2.7572,-2.7561,-2.7608,-2.7608,-2.7648,-2.7648,-2.7649]}]]